Вернуться в каталог

GEESAT 6-02

АктивенНавигацияLEO
NORAD 65714·PAYLOAD·🇨🇳 China

Запущен Sep 24, 2025 с Yellow Sea Launch Area

Loading…

Ближайшие Пролёты (ближайшие 24 часа)

TLE

СвежийSource: Space-Track

Эпоха: Sep 14, 2026, 00:54 UTC

1 65714U 25214C   26257.03796230  .00001196  00000-0  17076-3 0  9990
2 65714  49.9834 256.7425 0009932 198.1382 161.9203 14.83601167 52699

Отслеживайте GEESAT 6-02 в реальном времени с AllMySat

Download on the App Store